SCP
0 0 0 0 0 0 0 0 0 0 0 0 0 0 0 0 0 0 0 0 0 0 0 0 0 0 0 0 0 0 0 0 0 0 0 0 0 0 1 1 1 0 1
0 0 0 0 0 0 0 -0 -0 -0 -0 -0 -0 0 -0 0 0 0 0 0 0 0 -0 -0 0 -0 0 0 0 0 0 0 0 0 0 0 0 0 0 1 1 1 1
0 0 0 0 0 0 0 0 0 0 0 0 -0 0 0 0 0 0 0 0 0 0 0 -0 -0 0 0 0 0 0 0 0 0 0 0 0 0 0 0 0 1 1 1
0 0 0 0 0 0 -0 0 0 0 -0 0 0 0 0 0 0 0 0 0 0 0 0 0 0 0 -0 -0 0 0 0 0 0 0 0 0 0 0 0 0 1 1 1
0 0 0 0 0 0 0 0 0 0 0 0 0 0 0 0 0 0 0 0 0 0 0 0 0 0 -0 -0 0 0 0 0 0 0 0 0 0 0 0 0 1 1 1
0 0 0 0 0 0 0 0 0 0 0 0 0 0 0 0 0 0 0 0 0 0 0 0 0 0 -0 -0 0 0 0 0 0 0 0 0 0 0 0 0 1 1 1
0 0 0 0 0 0 0 0 0 0 0 0 0 0 0 0 0 0 0 0 0 0 0 0 0 0 0 -0 0 0 0 0 0 0 0 0 0 0 1 1 1 1 1
0 0 0 0 0 0 0 0 0 0 0 0 0 0 0 0 0 0 0 0 0 0 0 0 0 0 -0 0 0 0 0 0 0 0 0 0 0 0 1 1 1 1 2
0 0 0 0 0 0 0 0 0 0 0 0 0 0 0 0 0 0 0 0 0 0 0 0 -0 -0 0 0 0 0 0 0 0 0 0 0 0 0 1 1 1 2 2
0 0 0 0 0 0 0 0 0 0 0 0 0 0 0 0 0 0 0 0 0 0 0 0 0 0 0 0 0 0 0 0 0 0 0 0 0 0 0 1 2 2 2
0 0 0 0 0 0 0 0 0 0 0 0 0 0 0 0 0 0 0 0 0 0 -0 -0 0 0 0 0 0 0 0 0 0 0 0 0 0 0 0 0 1 2 2
0 0 0 0 0 0 0 0 0 0 0 0 0 0 0 0 0 0 0 0 0 0 0 0 0 0 0 0 0 0 0 0 0 0 0 0 0 0 0 -0 2 1 1
0 0 0 0 0 0 0 0 0 0 0 0 0 0 0 0 0 0 0 0 0 0 0 0 0 0 0 0 0 0 0 0 0 0 0 0 0 -0 -0 0 -0 1 1
0 0 0 0 0 0 0 0 0 0 0 0 0 0 0 0 0 0 0 0 0 0 0 0 0 0 0 0 0 0 0 0 0 0 0 0 0 -0 0 -0 0 -0 0
0 0 0 0 0 0 0 0 0 0 0 0 0 0 -0 -0 -0 0 0 0 0 0 0 0 0 0 0 0 0 0 0 0 0 0 0 0 0 -0 0 -0 -0 -0 -0
0 0 0 0 0 0 0 0 0 0 0 0 -0 0 0 0 -0 0 0 0 0 0 0 0 0 0 0 -0 0 0 0 0 0 0 -0 -0 -0 -0 -0 -0 -0 -0 -0
0 0 0 0 0 0 0 0 0 0 0 0 -0 0 0 0 0 0 0 0 -0 -0 0 0 0 0 0 0 0 0 0 0 -0 -0 -0 -0 -0 -0 -0 -0 -0 -0 -0
0 0 0 0 0 0 0 0 0 0 0 0 0 -0 0 0 -0 0 0 -0 -0 0 -0 0 0 0 0 0 0 0 0 0 -0 -0 -0 -0 -0 -0 -0 -0 -0 -0 -0
0 0 0 0 0 0 0 0 0 0 0 0 -0 -0 -0 0 -0 0 0 -0 -0 -0 0 0 0 0 0 0 0 -0 0 0 0 -0 -0 -0 -0 -0 -0 -0 -0 -0 -0
0 0 0 0 0 0 0 0 0 0 0 0 0 0 0 0 -0 -0 -0 -0 0 -0 0 0 0 0 0 0 -0 0 -0 -0 0 -0 -0 -0 -0 -0 -0 -0 -0 -0 -0
0 0 0 0 0 0 0 0 0 0 0 0 0 0 -0 -0 -0 -0 0 0 0 -0 0 0 0 0 0 0 -0 -0 -0 -0 0 -0 -0 -0 -0 -0 -0 -0 -0 -0 -0
0 0 0 0 0 0 0 0 0 0 0 0 -0 -0 -0 0 -0 -0 0 0 0 0 0 0 -0 0 0 0 0 0 0 0 0 -0 0 0 0 0 0 -0 -0 0 0
0 0 0 0 -0 0 -0 0 0 0 -0 -0 0 -0 -0 -0 0 0 0 0 0 0 -0 0 0 -0 0 -0 -0 -0 -0 -0 0 0 0 0 0 -0 -0 -0 0 0 0
0 0 -0 -0 0 -0 -0 -0 -0 -0 0 -0 -0 -0 0 0 0 0 0 0 0 0 0 -0 0 -0 0 0 0 0 0 0 0 0 0 0 0 0 0 -0 -0 -0 -0
0 0 0 -0 -0 -0 -0 -0 0 0 0 -0 -0 -0 0 0 0 0 0 0 0 0 0 0 0 0 -0 0 0 0 0 0 0 0 0 0 0 0 -0 0 0 0 0
-0 0 0 0 0 0 0 0 0 0 0 0 0 0 0 0 0 0 0 0 0 -0 0 0 0 0 0 0 0 0 0 0 0 0 0 0 0 0 0 -0 0 0 -0
Wind_Speed_500mb
15 19 23 25 31 33 38 46 48 50 54 56 56 58 58 54 50 48 48 49 52 56 61 56 48 50 47 47 48 49 53 58 71 73 76 81 82 77 77 77 81 84 89
22 23 26 29 32 32 42 47 50 54 55 58 62 59 56 51 48 47 46 46 46 47 47 51 57 41 41 44 48 47 51 55 61 70 76 80 82 87 86 82 81 83 85
25 30 29 33 33 34 43 47 50 55 60 71 63 60 52 47 46 45 42 39 37 38 40 39 37 34 43 55 46 48 49 52 56 61 72 81 86 87 88 90 87 84 86
27 32 35 36 38 43 48 50 52 58 68 63 61 48 50 45 43 42 36 34 33 36 36 41 45 41 49 46 48 46 50 55 59 61 64 68 76 83 87 86 93 91 86
44 48 45 39 41 49 50 53 54 59 56 52 52 48 47 47 41 37 38 37 31 32 40 52 44 45 47 44 46 49 53 52 57 62 66 68 71 77 84 86 85 93 92
38 52 53 44 52 41 45 51 55 47 43 48 44 49 49 46 30 25 26 34 35 38 38 46 41 46 41 46 47 49 50 49 58 67 72 74 74 75 79 84 85 85 93
52 52 41 36 39 44 50 46 40 40 40 38 38 44 43 35 27 14 40 30 33 31 40 36 43 42 42 48 49 50 43 46 55 51 55 63 68 73 80 78 79 79 83
45 39 36 39 43 43 38 43 36 31 31 31 38 37 38 33 22 41 28 33 30 39 39 44 38 46 47 45 44 33 37 47 53 45 42 48 59 69 75 79 81 81 75
35 34 43 42 34 26 27 25 27 28 32 32 31 24 23 22 47 26 35 25 32 38 38 38 45 42 39 32 30 36 42 42 46 34 40 49 45 52 69 70 70 72 73
38 39 31 39 27 24 19 24 24 29 31 31 30 26 33 36 29 36 30 34 39 38 38 37 35 33 27 25 37 42 40 41 40 32 35 35 37 37 42 61 65 67 68
31 35 32 35 24 21 20 24 24 26 28 30 30 28 31 29 32 31 45 44 42 37 38 36 27 29 34 30 37 41 44 38 37 36 35 35 32 43 50 47 54 59 56
25 25 36 29 27 23 21 20 24 21 26 24 21 28 26 32 34 34 34 40 39 40 34 35 25 31 31 36 31 36 40 38 40 39 34 38 36 34 48 85 70 51 45
26 27 22 31 21 23 25 23 24 20 22 21 19 29 24 28 28 26 26 33 38 37 29 18 30 28 28 30 31 38 36 36 36 38 33 29 27 31 21 25 70 71 58
24 27 29 27 27 27 26 24 19 22 20 24 19 18 21 22 26 26 25 30 40 27 28 30 25 19 26 30 29 35 32 34 34 36 39 37 28 20 15 16 26 31 31
26 25 27 29 28 29 26 23 19 19 15 23 19 22 25 27 25 32 23 26 31 25 35 36 22 19 23 25 26 26 25 32 32 32 32 34 33 27 21 14 14 19 17
27 30 28 26 25 25 22 21 19 17 16 16 19 26 26 25 30 34 28 24 28 26 27 42 20 16 17 32 23 23 19 21 35 33 32 32 31 31 28 25 18 17 22
28 29 27 27 24 20 18 18 19 18 18 22 22 25 22 29 33 31 31 29 27 27 36 34 19 15 21 27 27 17 15 22 34 35 35 31 32 29 27 26 22 18 19
28 28 24 21 16 12 13 14 18 21 26 26 24 23 22 27 39 32 31 29 23 25 30 38 13 9 19 23 21 19 17 18 25 32 35 36 36 40 42 39 35 33 32
30 26 19 14 10 10 10 14 19 22 25 26 22 20 24 28 37 35 28 28 25 24 32 18 12 10 22 19 20 17 13 14 16 18 23 28 30 38 38 38 36 32 29
25 27 23 17 15 12 8 14 19 23 27 21 18 20 23 30 37 35 29 21 23 28 16 12 6 8 15 19 23 20 19 19 20 20 24 31 33 36 40 41 41 39 37
25 26 23 21 18 11 13 28 26 24 27 18 19 20 23 27 38 46 30 20 15 20 6 3 5 11 13 13 16 17 26 23 24 27 32 38 40 42 48 48 47 47 45
26 26 24 18 17 16 26 26 29 27 24 19 19 23 23 21 30 31 22 19 16 9 6 2 17 17 18 18 21 15 9 8 19 33 41 42 45 52 52 52 51 52 53
28 22 22 24 22 26 32 31 28 23 24 16 17 28 22 21 21 19 14 12 9 10 9 9 10 13 13 20 22 17 22 25 33 35 42 44 40 35 48 53 55 58 64
26 23 28 29 26 21 27 22 9 9 12 13 14 21 23 15 14 10 8 7 8 12 17 18 8 11 14 15 24 21 20 27 31 34 38 24 24 28 28 40 51 54 59
28 27 25 24 17 20 18 15 15 13 12 14 15 20 14 12 11 12 10 16 20 22 22 16 14 15 14 13 16 16 21 24 25 28 26 17 22 23 24 24 34 39 54
23 18 13 17 18 18 19 14 7 10 9 5 11 13 15 19 18 16 19 22 23 25 19 18 17 11 11 11 9 12 15 24 23 21 23 19 17 4 23 25 28 32 36
Wind_Direction_500mb
327 342 337 335 335 331 332 329 326 321 325 324 321 318 315 311 307 303 297 295 296 297 302 306 302 303 297 293 290 287 279 267 266 267 265 258 254 252 251 250 248 248 247
327 337 336 325 327 323 329 330 325 322 320 320 318 316 313 308 305 303 300 299 301 305 305 310 315 303 305 303 292 287 283 277 270 267 265 264 260 254 251 251 250 249 248
329 325 326 326 323 320 330 326 322 321 318 315 315 314 310 307 303 302 302 303 305 305 312 316 306 295 303 312 299 291 289 285 281 276 270 267 264 259 255 250 250 250 249
330 321 326 325 316 328 328 322 318 318 318 318 316 312 311 310 306 304 306 303 303 302 296 294 294 303 314 321 312 302 297 293 288 282 274 269 266 263 259 254 250 249 249
292 298 314 322 311 325 317 318 318 317 318 316 317 312 313 310 304 302 302 297 317 317 317 311 307 314 318 307 303 300 298 293 293 289 284 276 268 264 261 257 252 248 248
293 295 305 312 309 315 314 312 313 319 318 318 315 320 312 306 303 302 319 316 314 321 326 327 320 309 307 306 306 299 294 297 296 291 281 272 268 263 261 257 254 251 246
298 302 316 307 310 307 309 311 316 324 321 321 321 325 324 320 322 309 326 316 321 319 327 316 312 315 311 300 301 300 301 312 318 312 292 278 275 270 263 257 252 252 248
297 310 302 307 316 314 314 310 328 325 321 326 326 332 330 336 333 327 320 322 322 328 323 316 322 311 308 306 313 319 318 325 326 319 319 306 292 278 268 259 254 248 246
305 299 302 314 312 322 317 330 333 313 320 329 330 314 324 319 323 322 321 321 331 332 321 322 317 312 318 325 328 330 335 332 332 333 356 349 302 289 268 260 255 247 241
305 304 295 312 311 322 314 323 318 322 322 324 323 315 307 305 310 316 322 324 336 331 327 321 311 334 344 341 344 332 332 333 327 327 319 340 342 327 288 253 245 241 237
298 288 287 319 309 303 304 329 321 328 336 325 313 325 318 314 307 315 313 325 331 330 328 330 341 353 352 357 348 344 343 338 330 321 336 318 303 351 345 254 237 226 213
303 294 310 310 289 295 312 312 313 327 326 325 326 328 325 324 318 321 312 318 322 325 324 326 351 347 349 357 356 350 358 351 336 335 340 335 342 335 355 17 206 184 187
302 301 304 292 301 295 301 302 302 316 325 325 335 340 326 332 322 319 317 321 322 323 332 312 356 356 359 359 352 350 358 0 358 5 16 355 354 0 343 345 40 102 140
298 292 299 296 296 300 298 297 311 299 329 329 326 329 331 329 337 338 326 327 331 327 344 24 347 4 355 351 352 351 355 7 8 19 31 34 28 20 10 343 11 99 113
297 295 293 294 294 295 292 295 308 306 338 317 321 321 331 345 329 322 328 322 328 316 330 337 342 352 349 359 351 347 1 16 13 22 30 38 47 45 41 46 7 48 86
294 290 291 291 295 292 294 296 308 304 306 320 323 314 332 345 331 331 321 309 316 316 305 330 318 344 355 355 355 346 3 27 29 31 39 43 48 50 50 58 66 75 75
292 293 292 292 301 297 298 305 317 314 304 313 317 324 331 332 333 332 324 321 312 309 314 328 293 336 350 355 353 1 25 49 48 36 42 47 51 51 52 55 58 66 69
311 308 305 299 300 302 307 326 318 315 306 299 300 314 317 324 329 335 327 321 316 313 315 319 251 345 9 4 1 10 26 51 60 54 55 57 59 69 72 74 72 68 65
331 327 326 317 313 316 332 328 328 318 315 299 293 310 317 322 319 328 329 318 312 328 318 297 246 24 2 16 17 16 19 43 68 60 56 60 72 76 71 66 64 60 56
326 330 329 323 325 325 317 326 325 321 318 306 297 309 317 310 322 327 330 324 333 330 341 348 129 30 21 26 26 36 44 59 67 71 71 72 77 76 68 64 58 53 48
344 344 338 332 322 330 281 302 306 319 318 316 320 318 318 321 319 326 326 325 325 315 30 355 77 17 24 8 4 28 47 52 71 76 80 83 78 69 63 57 51 46 40
337 345 338 332 350 322 296 294 299 308 317 310 319 325 320 330 315 322 329 339 345 351 93 111 95 59 19 22 25 22 350 351 69 82 82 79 73 64 58 54 49 44 38
343 329 325 321 320 308 302 306 289 292 310 302 323 330 333 315 313 320 336 352 355 40 71 109 98 41 25 35 29 58 85 90 92 89 85 73 67 64 55 51 45 41 38
328 329 327 330 329 341 335 337 313 322 327 346 351 317 322 332 334 355 25 33 82 75 103 121 112 40 49 55 59 78 74 91 96 89 81 59 60 50 21 32 36 31 31
327 326 333 353 17 355 12 22 37 30 34 4 323 326 355 357 35 85 72 95 103 97 115 103 77 62 50 53 51 52 79 97 85 84 83 78 76 65 58 36 24 29 18
340 340 19 22 23 39 15 11 347 21 8 339 11 31 55 76 77 85 82 94 97 96 103 96 83 51 36 18 28 77 95 96 76 99 60 63 52 56 64 44 38 42 24
Wind_Speed_850mb
15 19 23 25 31 33 38 46 48 50 54 56 56 58 58 54 50 48 48 49 52 56 61 56 48 50 47 47 48 49 53 58 71 73 76 81 82 77 77 77 81 84 89
22 23 26 29 32 32 42 47 50 54 55 58 62 59 56 51 48 47 46 46 46 47 47 51 57 41 41 44 48 47 51 55 61 70 76 80 82 87 86 82 81 83 85
25 30 29 33 33 34 43 47 50 55 60 71 63 60 52 47 46 45 42 39 37 38 40 39 37 34 43 55 46 48 49 52 56 61 72 81 86 87 88 90 87 84 86
27 32 35 36 38 43 48 50 52 58 68 63 61 48 50 45 43 42 36 34 33 36 36 41 45 41 49 46 48 46 50 55 59 61 64 68 76 83 87 86 93 91 86
44 48 45 39 41 49 50 53 54 59 56 52 52 48 47 47 41 37 38 37 31 32 40 52 44 45 47 44 46 49 53 52 57 62 66 68 71 77 84 86 85 93 92
38 52 53 44 52 41 45 51 55 47 43 48 44 49 49 46 30 25 26 34 35 38 38 46 41 46 41 46 47 49 50 49 58 67 72 74 74 75 79 84 85 85 93
52 52 41 36 39 44 50 46 40 40 40 38 38 44 43 35 27 14 40 30 33 31 40 36 43 42 42 48 49 50 43 46 55 51 55 63 68 73 80 78 79 79 83
45 39 36 39 43 43 38 43 36 31 31 31 38 37 38 33 22 41 28 33 30 39 39 44 38 46 47 45 44 33 37 47 53 45 42 48 59 69 75 79 81 81 75
35 34 43 42 34 26 27 25 27 28 32 32 31 24 23 22 47 26 35 25 32 38 38 38 45 42 39 32 30 36 42 42 46 34 40 49 45 52 69 70 70 72 73
38 39 31 39 27 24 19 24 24 29 31 31 30 26 33 36 29 36 30 34 39 38 38 37 35 33 27 25 37 42 40 41 40 32 35 35 37 37 42 61 65 67 68
31 35 32 35 24 21 20 24 24 26 28 30 30 28 31 29 32 31 45 44 42 37 38 36 27 29 34 30 37 41 44 38 37 36 35 35 32 43 50 47 54 59 56
25 25 36 29 27 23 21 20 24 21 26 24 21 28 26 32 34 34 34 40 39 40 34 35 25 31 31 36 31 36 40 38 40 39 34 38 36 34 48 85 70 51 45
26 27 22 31 21 23 25 23 24 20 22 21 19 29 24 28 28 26 26 33 38 37 29 18 30 28 28 30 31 38 36 36 36 38 33 29 27 31 21 25 70 71 58
24 27 29 27 27 27 26 24 19 22 20 24 19 18 21 22 26 26 25 30 40 27 28 30 25 19 26 30 29 35 32 34 34 36 39 37 28 20 15 16 26 31 31
26 25 27 29 28 29 26 23 19 19 15 23 19 22 25 27 25 32 23 26 31 25 35 36 22 19 23 25 26 26 25 32 32 32 32 34 33 27 21 14 14 19 17
27 30 28 26 25 25 22 21 19 17 16 16 19 26 26 25 30 34 28 24 28 26 27 42 20 16 17 32 23 23 19 21 35 33 32 32 31 31 28 25 18 17 22
28 29 27 27 24 20 18 18 19 18 18 22 22 25 22 29 33 31 31 29 27 27 36 34 19 15 21 27 27 17 15 22 34 35 35 31 32 29 27 26 22 18 19
28 28 24 21 16 12 13 14 18 21 26 26 24 23 22 27 39 32 31 29 23 25 30 38 13 9 19 23 21 19 17 18 25 32 35 36 36 40 42 39 35 33 32
30 26 19 14 10 10 10 14 19 22 25 26 22 20 24 28 37 35 28 28 25 24 32 18 12 10 22 19 20 17 13 14 16 18 23 28 30 38 38 38 36 32 29
25 27 23 17 15 12 8 14 19 23 27 21 18 20 23 30 37 35 29 21 23 28 16 12 6 8 15 19 23 20 19 19 20 20 24 31 33 36 40 41 41 39 37
25 26 23 21 18 11 13 28 26 24 27 18 19 20 23 27 38 46 30 20 15 20 6 3 5 11 13 13 16 17 26 23 24 27 32 38 40 42 48 48 47 47 45
26 26 24 18 17 16 26 26 29 27 24 19 19 23 23 21 30 31 22 19 16 9 6 2 17 17 18 18 21 15 9 8 19 33 41 42 45 52 52 52 51 52 53
28 22 22 24 22 26 32 31 28 23 24 16 17 28 22 21 21 19 14 12 9 10 9 9 10 13 13 20 22 17 22 25 33 35 42 44 40 35 48 53 55 58 64
26 23 28 29 26 21 27 22 9 9 12 13 14 21 23 15 14 10 8 7 8 12 17 18 8 11 14 15 24 21 20 27 31 34 38 24 24 28 28 40 51 54 59
28 27 25 24 17 20 18 15 15 13 12 14 15 20 14 12 11 12 10 16 20 22 22 16 14 15 14 13 16 16 21 24 25 28 26 17 22 23 24 24 34 39 54
23 18 13 17 18 18 19 14 7 10 9 5 11 13 15 19 18 16 19 22 23 25 19 18 17 11 11 11 9 12 15 24 23 21 23 19 17 4 23 25 28 32 36
Wind_Direction_850mb
327 342 337 335 335 331 332 329 326 321 325 324 321 318 315 311 307 303 297 295 296 297 302 306 302 303 297 293 290 287 279 267 266 267 265 258 254 252 251 250 248 248 247
327 337 336 325 327 323 329 330 325 322 320 320 318 316 313 308 305 303 300 299 301 305 305 310 315 303 305 303 292 287 283 277 270 267 265 264 260 254 251 251 250 249 248
329 325 326 326 323 320 330 326 322 321 318 315 315 314 310 307 303 302 302 303 305 305 312 316 306 295 303 312 299 291 289 285 281 276 270 267 264 259 255 250 250 250 249
330 321 326 325 316 328 328 322 318 318 318 318 316 312 311 310 306 304 306 303 303 302 296 294 294 303 314 321 312 302 297 293 288 282 274 269 266 263 259 254 250 249 249
292 298 314 322 311 325 317 318 318 317 318 316 317 312 313 310 304 302 302 297 317 317 317 311 307 314 318 307 303 300 298 293 293 289 284 276 268 264 261 257 252 248 248
293 295 305 312 309 315 314 312 313 319 318 318 315 320 312 306 303 302 319 316 314 321 326 327 320 309 307 306 306 299 294 297 296 291 281 272 268 263 261 257 254 251 246
298 302 316 307 310 307 309 311 316 324 321 321 321 325 324 320 322 309 326 316 321 319 327 316 312 315 311 300 301 300 301 312 318 312 292 278 275 270 263 257 252 252 248
297 310 302 307 316 314 314 310 328 325 321 326 326 332 330 336 333 327 320 322 322 328 323 316 322 311 308 306 313 319 318 325 326 319 319 306 292 278 268 259 254 248 246
305 299 302 314 312 322 317 330 333 313 320 329 330 314 324 319 323 322 321 321 331 332 321 322 317 312 318 325 328 330 335 332 332 333 356 349 302 289 268 260 255 247 241
305 304 295 312 311 322 314 323 318 322 322 324 323 315 307 305 310 316 322 324 336 331 327 321 311 334 344 341 344 332 332 333 327 327 319 340 342 327 288 253 245 241 237
298 288 287 319 309 303 304 329 321 328 336 325 313 325 318 314 307 315 313 325 331 330 328 330 341 353 352 357 348 344 343 338 330 321 336 318 303 351 345 254 237 226 213
303 294 310 310 289 295 312 312 313 327 326 325 326 328 325 324 318 321 312 318 322 325 324 326 351 347 349 357 356 350 358 351 336 335 340 335 342 335 355 17 206 184 187
302 301 304 292 301 295 301 302 302 316 325 325 335 340 326 332 322 319 317 321 322 323 332 312 356 356 359 359 352 350 358 0 358 5 16 355 354 0 343 345 40 102 140
298 292 299 296 296 300 298 297 311 299 329 329 326 329 331 329 337 338 326 327 331 327 344 24 347 4 355 351 352 351 355 7 8 19 31 34 28 20 10 343 11 99 113
297 295 293 294 294 295 292 295 308 306 338 317 321 321 331 345 329 322 328 322 328 316 330 337 342 352 349 359 351 347 1 16 13 22 30 38 47 45 41 46 7 48 86
294 290 291 291 295 292 294 296 308 304 306 320 323 314 332 345 331 331 321 309 316 316 305 330 318 344 355 355 355 346 3 27 29 31 39 43 48 50 50 58 66 75 75
292 293 292 292 301 297 298 305 317 314 304 313 317 324 331 332 333 332 324 321 312 309 314 328 293 336 350 355 353 1 25 49 48 36 42 47 51 51 52 55 58 66 69
311 308 305 299 300 302 307 326 318 315 306 299 300 314 317 324 329 335 327 321 316 313 315 319 251 345 9 4 1 10 26 51 60 54 55 57 59 69 72 74 72 68 65
331 327 326 317 313 316 332 328 328 318 315 299 293 310 317 322 319 328 329 318 312 328 318 297 246 24 2 16 17 16 19 43 68 60 56 60 72 76 71 66 64 60 56
326 330 329 323 325 325 317 326 325 321 318 306 297 309 317 310 322 327 330 324 333 330 341 348 129 30 21 26 26 36 44 59 67 71 71 72 77 76 68 64 58 53 48
344 344 338 332 322 330 281 302 306 319 318 316 320 318 318 321 319 326 326 325 325 315 30 355 77 17 24 8 4 28 47 52 71 76 80 83 78 69 63 57 51 46 40
337 345 338 332 350 322 296 294 299 308 317 310 319 325 320 330 315 322 329 339 345 351 93 111 95 59 19 22 25 22 350 351 69 82 82 79 73 64 58 54 49 44 38
343 329 325 321 320 308 302 306 289 292 310 302 323 330 333 315 313 320 336 352 355 40 71 109 98 41 25 35 29 58 85 90 92 89 85 73 67 64 55 51 45 41 38
328 329 327 330 329 341 335 337 313 322 327 346 351 317 322 332 334 355 25 33 82 75 103 121 112 40 49 55 59 78 74 91 96 89 81 59 60 50 21 32 36 31 31
327 326 333 353 17 355 12 22 37 30 34 4 323 326 355 357 35 85 72 95 103 97 115 103 77 62 50 53 51 52 79 97 85 84 83 78 76 65 58 36 24 29 18
340 340 19 22 23 39 15 11 347 21 8 339 11 31 55 76 77 85 82 94 97 96 103 96 83 51 36 18 28 77 95 96 76 99 60 63 52 56 64 44 38 42 24